owner,sensor,date,latitude,longitude,air_temperature,qcFlag 
COMPS,ioos:station:USF.COMPS:FHP:1,2019-10-01T00:54:00,28.1530,-82.8010,28.87,11111222 
COMPS,ioos:station:USF.COMPS:FHP:1,2019-10-01T01:54:00,28.1530,-82.8010,27.95,11111222 
COMPS,ioos:station:USF.COMPS:FHP:1,2019-10-01T02:54:00,28.1530,-82.8010,27.1,11111222 
COMPS,ioos:station:USF.COMPS:FHP:1,2019-10-01T03:54:00,28.1530,-82.8010,26.75,11111222 
COMPS,ioos:station:USF.COMPS:FHP:1,2019-10-01T04:54:00,28.1530,-82.8010,26.17,11111222 
COMPS,ioos:station:USF.COMPS:FHP:1,2019-10-01T05:54:00,28.1530,-82.8010,25.62,11111222 
COMPS,ioos:station:USF.COMPS:FHP:1,2019-10-01T06:54:00,28.1530,-82.8010,25.5,11111222 
COMPS,ioos:station:USF.COMPS:FHP:1,2019-10-01T07:54:00,28.1530,-82.8010,25.29,11111222 
COMPS,ioos:station:USF.COMPS:FHP:1,2019-10-01T08:54:00,28.1530,-82.8010,24.99,11111222 
COMPS,ioos:station:USF.COMPS:FHP:1,2019-10-01T09:54:00,28.1530,-82.8010,24.78,11111222 
COMPS,ioos:station:USF.COMPS:FHP:1,2019-10-01T10:54:00,28.1530,-82.8010,24.6,11111222 
COMPS,ioos:station:USF.COMPS:FHP:1,2019-10-01T11:54:00,28.1530,-82.8010,24.42,11111222 
COMPS,ioos:station:USF.COMPS:FHP:1,2019-10-01T12:54:00,28.1530,-82.8010,25.3,11111222 
COMPS,ioos:station:USF.COMPS:FHP:1,2019-10-01T13:54:00,28.1530,-82.8010,26.88,11111222 
COMPS,ioos:station:USF.COMPS:FHP:1,2019-10-01T14:54:00,28.1530,-82.8010,27.8,11111222 
COMPS,ioos:station:USF.COMPS:FHP:1,2019-10-01T15:54:00,28.1530,-82.8010,28.97,11111222 
COMPS,ioos:station:USF.COMPS:FHP:1,2019-10-01T16:54:00,28.1530,-82.8010,29.8,11111222 
COMPS,ioos:station:USF.COMPS:FHP:1,2019-10-01T17:54:00,28.1530,-82.8010,30.45,11111222 
COMPS,ioos:station:USF.COMPS:FHP:1,2019-10-01T18:54:00,28.1530,-82.8010,27.28,11111222 
COMPS,ioos:station:USF.COMPS:FHP:1,2019-10-01T19:54:00,28.1530,-82.8010,29.22,11111222 
COMPS,ioos:station:USF.COMPS:FHP:1,2019-10-01T20:54:00,28.1530,-82.8010,29.07,11111222 
COMPS,ioos:station:USF.COMPS:FHP:1,2019-10-01T21:54:00,28.1530,-82.8010,30.23,11111222 
COMPS,ioos:station:USF.COMPS:FHP:1,2019-10-01T22:54:00,28.1530,-82.8010,30.04,11111222 
COMPS,ioos:station:USF.COMPS:FHP:1,2019-10-01T23:54:00,28.1530,-82.8010,28.86,11111222 
COMPS,ioos:station:USF.COMPS:FHP:1,2019-10-02T00:54:00,28.1530,-82.8010,27.88,11111222 
COMPS,ioos:station:USF.COMPS:FHP:1,2019-10-02T01:54:00,28.1530,-82.8010,26.91,11111222 
COMPS,ioos:station:USF.COMPS:FHP:1,2019-10-02T02:54:00,28.1530,-82.8010,26.11,11111222 
COMPS,ioos:station:USF.COMPS:FHP:1,2019-10-02T03:54:00,28.1530,-82.8010,25.47,11111222 
COMPS,ioos:station:USF.COMPS:FHP:1,2019-10-02T04:54:00,28.1530,-82.8010,24.95,11111222 
COMPS,ioos:station:USF.COMPS:FHP:1,2019-10-02T05:54:00,28.1530,-82.8010,24.37,11111222 
COMPS,ioos:station:USF.COMPS:FHP:1,2019-10-02T06:54:00,28.1530,-82.8010,23.9,11111222 
COMPS,ioos:station:USF.COMPS:FHP:1,2019-10-02T07:54:00,28.1530,-82.8010,23.69,11111222 
COMPS,ioos:station:USF.COMPS:FHP:1,2019-10-02T08:54:00,28.1530,-82.8010,23.85,11111222 
COMPS,ioos:station:USF.COMPS:FHP:1,2019-10-02T09:54:00,28.1530,-82.8010,23.86,11111222 
COMPS,ioos:station:USF.COMPS:FHP:1,2019-10-02T10:54:00,28.1530,-82.8010,23.84,11111222 
COMPS,ioos:station:USF.COMPS:FHP:1,2019-10-02T11:54:00,28.1530,-82.8010,23.97,11111222 
COMPS,ioos:station:USF.COMPS:FHP:1,2019-10-02T12:54:00,28.1530,-82.8010,25.07,11111222 
COMPS,ioos:station:USF.COMPS:FHP:1,2019-10-02T13:54:00,28.1530,-82.8010,26.29,11111222 
COMPS,ioos:station:USF.COMPS:FHP:1,2019-10-02T14:54:00,28.1530,-82.8010,27.78,11111222 
COMPS,ioos:station:USF.COMPS:FHP:1,2019-10-02T15:54:00,28.1530,-82.8010,28.78,11111222 
COMPS,ioos:station:USF.COMPS:FHP:1,2019-10-02T16:54:00,28.1530,-82.8010,29.62,11111222 
COMPS,ioos:station:USF.COMPS:FHP:1,2019-10-02T17:54:00,28.1530,-82.8010,30.64,11111222 
COMPS,ioos:station:USF.COMPS:FHP:1,2019-10-02T18:54:00,28.1530,-82.8010,31.21,11111222 
COMPS,ioos:station:USF.COMPS:FHP:1,2019-10-02T19:54:00,28.1530,-82.8010,32.34,11111222 
COMPS,ioos:station:USF.COMPS:FHP:1,2019-10-02T20:54:00,28.1530,-82.8010,32.39,11111222 
COMPS,ioos:station:USF.COMPS:FHP:1,2019-10-02T21:54:00,28.1530,-82.8010,31.83,11111222 
COMPS,ioos:station:USF.COMPS:FHP:1,2019-10-02T22:54:00,28.1530,-82.8010,31.05,11111222 
COMPS,ioos:station:USF.COMPS:FHP:1,2019-10-02T23:54:00,28.1530,-82.8010,29.5,11111222 
COMPS,ioos:station:USF.COMPS:FHP:1,2019-10-03T00:54:00,28.1530,-82.8010,28.23,11111222 
COMPS,ioos:station:USF.COMPS:FHP:1,2019-10-03T01:54:00,28.1530,-82.8010,27.34,11111222 
COMPS,ioos:station:USF.COMPS:FHP:1,2019-10-03T02:54:00,28.1530,-82.8010,26.81,11111222 
COMPS,ioos:station:USF.COMPS:FHP:1,2019-10-03T03:54:00,28.1530,-82.8010,25.95,11111222 
COMPS,ioos:station:USF.COMPS:FHP:1,2019-10-03T04:54:00,28.1530,-82.8010,25.28,11111222 
COMPS,ioos:station:USF.COMPS:FHP:1,2019-10-03T05:54:00,28.1530,-82.8010,24.76,11111222 
COMPS,ioos:station:USF.COMPS:FHP:1,2019-10-03T06:54:00,28.1530,-82.8010,24.4,11111222 
COMPS,ioos:station:USF.COMPS:FHP:1,2019-10-03T07:54:00,28.1530,-82.8010,23.76,11111222 
COMPS,ioos:station:USF.COMPS:FHP:1,2019-10-03T08:54:00,28.1530,-82.8010,23.72,11111222 
COMPS,ioos:station:USF.COMPS:FHP:1,2019-10-03T09:54:00,28.1530,-82.8010,23.83,11111222 
COMPS,ioos:station:USF.COMPS:FHP:1,2019-10-03T10:54:00,28.1530,-82.8010,22.87,11111222 
COMPS,ioos:station:USF.COMPS:FHP:1,2019-10-03T11:54:00,28.1530,-82.8010,22.92,11111222 
COMPS,ioos:station:USF.COMPS:FHP:1,2019-10-03T12:54:00,28.1530,-82.8010,24.64,11111222 
COMPS,ioos:station:USF.COMPS:FHP:1,2019-10-03T13:54:00,28.1530,-82.8010,26.09,11111222 
COMPS,ioos:station:USF.COMPS:FHP:1,2019-10-03T14:54:00,28.1530,-82.8010,26.62,11111222 
COMPS,ioos:station:USF.COMPS:FHP:1,2019-10-03T15:54:00,28.1530,-82.8010,28.44,11111222 
COMPS,ioos:station:USF.COMPS:FHP:1,2019-10-03T16:54:00,28.1530,-82.8010,29.46,11111222 
COMPS,ioos:station:USF.COMPS:FHP:1,2019-10-03T17:54:00,28.1530,-82.8010,30.29,11111222 
COMPS,ioos:station:USF.COMPS:FHP:1,2019-10-03T18:54:00,28.1530,-82.8010,27.99,11111222 
COMPS,ioos:station:USF.COMPS:FHP:1,2019-10-03T19:54:00,28.1530,-82.8010,28.31,11111222 
COMPS,ioos:station:USF.COMPS:FHP:1,2019-10-03T20:54:00,28.1530,-82.8010,28.26,11111222 
COMPS,ioos:station:USF.COMPS:FHP:1,2019-10-03T21:54:00,28.1530,-82.8010,28.38,11111222 
COMPS,ioos:station:USF.COMPS:FHP:1,2019-10-03T22:54:00,28.1530,-82.8010,28.28,11111222 
COMPS,ioos:station:USF.COMPS:FHP:1,2019-10-03T23:54:00,28.1530,-82.8010,28.49,11111222 
COMPS,ioos:station:USF.COMPS:FHP:1,2019-10-04T00:54:00,28.1530,-82.8010,28.77,11111222 
COMPS,ioos:station:USF.COMPS:FHP:1,2019-10-04T01:54:00,28.1530,-82.8010,27.86,11111222 
COMPS,ioos:station:USF.COMPS:FHP:1,2019-10-04T02:54:00,28.1530,-82.8010,27.0,11111222 
COMPS,ioos:station:USF.COMPS:FHP:1,2019-10-04T03:54:00,28.1530,-82.8010,26.22,11111222 
COMPS,ioos:station:USF.COMPS:FHP:1,2019-10-04T04:54:00,28.1530,-82.8010,25.72,11111222 
COMPS,ioos:station:USF.COMPS:FHP:1,2019-10-04T05:54:00,28.1530,-82.8010,25.28,11111222 
COMPS,ioos:station:USF.COMPS:FHP:1,2019-10-04T06:54:00,28.1530,-82.8010,24.63,11111222 
COMPS,ioos:station:USF.COMPS:FHP:1,2019-10-04T07:54:00,28.1530,-82.8010,24.24,11111222 
COMPS,ioos:station:USF.COMPS:FHP:1,2019-10-04T08:54:00,28.1530,-82.8010,23.85,11111222 
COMPS,ioos:station:USF.COMPS:FHP:1,2019-10-04T09:54:00,28.1530,-82.8010,23.37,11111222 
COMPS,ioos:station:USF.COMPS:FHP:1,2019-10-04T10:54:00,28.1530,-82.8010,22.77,11111222 
COMPS,ioos:station:USF.COMPS:FHP:1,2019-10-04T11:54:00,28.1530,-82.8010,22.52,11111222 
COMPS,ioos:station:USF.COMPS:FHP:1,2019-10-04T12:54:00,28.1530,-82.8010,23.47,11111222 
COMPS,ioos:station:USF.COMPS:FHP:1,2019-10-04T13:54:00,28.1530,-82.8010,25.09,11111222 
COMPS,ioos:station:USF.COMPS:FHP:1,2019-10-04T14:54:00,28.1530,-82.8010,27.1,11111222 
COMPS,ioos:station:USF.COMPS:FHP:1,2019-10-04T15:54:00,28.1530,-82.8010,27.77,11111222 
COMPS,ioos:station:USF.COMPS:FHP:1,2019-10-04T16:54:00,28.1530,-82.8010,27.41,11111222 
COMPS,ioos:station:USF.COMPS:FHP:1,2019-10-04T17:54:00,28.1530,-82.8010,26.95,11111222 
COMPS,ioos:station:USF.COMPS:FHP:1,2019-10-04T18:54:00,28.1530,-82.8010,27.38,11111222 
COMPS,ioos:station:USF.COMPS:FHP:1,2019-10-04T19:54:00,28.1530,-82.8010,27.77,11111222 
COMPS,ioos:station:USF.COMPS:FHP:1,2019-10-04T20:54:00,28.1530,-82.8010,27.59,11111222 
COMPS,ioos:station:USF.COMPS:FHP:1,2019-10-04T21:54:00,28.1530,-82.8010,27.8,11111222 
COMPS,ioos:station:USF.COMPS:FHP:1,2019-10-04T22:54:00,28.1530,-82.8010,27.62,11111222 
COMPS,ioos:station:USF.COMPS:FHP:1,2019-10-04T23:54:00,28.1530,-82.8010,27.7,11111222 
COMPS,ioos:station:USF.COMPS:FHP:1,2019-10-05T00:54:00,28.1530,-82.8010,27.9,11111222 
COMPS,ioos:station:USF.COMPS:FHP:1,2019-10-05T01:54:00,28.1530,-82.8010,28.13,11111222 
COMPS,ioos:station:USF.COMPS:FHP:1,2019-10-05T02:54:00,28.1530,-82.8010,27.57,11111222 
COMPS,ioos:station:USF.COMPS:FHP:1,2019-10-05T03:54:00,28.1530,-82.8010,26.95,11111222 
COMPS,ioos:station:USF.COMPS:FHP:1,2019-10-05T04:54:00,28.1530,-82.8010,26.78,11111222 
COMPS,ioos:station:USF.COMPS:FHP:1,2019-10-05T05:54:00,28.1530,-82.8010,26.33,11111222 
COMPS,ioos:station:USF.COMPS:FHP:1,2019-10-05T06:54:00,28.1530,-82.8010,25.79,11111222 
COMPS,ioos:station:USF.COMPS:FHP:1,2019-10-05T07:54:00,28.1530,-82.8010,25.29,11111222 
COMPS,ioos:station:USF.COMPS:FHP:1,2019-10-05T08:54:00,28.1530,-82.8010,24.98,11111222 
COMPS,ioos:station:USF.COMPS:FHP:1,2019-10-05T09:54:00,28.1530,-82.8010,24.73,11111222 
COMPS,ioos:station:USF.COMPS:FHP:1,2019-10-05T10:54:00,28.1530,-82.8010,24.53,11111222 
COMPS,ioos:station:USF.COMPS:FHP:1,2019-10-05T11:54:00,28.1530,-82.8010,24.46,11111222 
COMPS,ioos:station:USF.COMPS:FHP:1,2019-10-05T12:54:00,28.1530,-82.8010,25.78,11111222 
COMPS,ioos:station:USF.COMPS:FHP:1,2019-10-05T13:54:00,28.1530,-82.8010,26.71,11111222 
COMPS,ioos:station:USF.COMPS:FHP:1,2019-10-05T14:54:00,28.1530,-82.8010,27.55,11111222 
COMPS,ioos:station:USF.COMPS:FHP:1,2019-10-05T15:54:00,28.1530,-82.8010,28.81,11111222 
COMPS,ioos:station:USF.COMPS:FHP:1,2019-10-05T16:54:00,28.1530,-82.8010,29.99,11111222 
COMPS,ioos:station:USF.COMPS:FHP:1,2019-10-05T17:54:00,28.1530,-82.8010,31.01,11111222 
COMPS,ioos:station:USF.COMPS:FHP:1,2019-10-05T18:54:00,28.1530,-82.8010,31.16,11111222 
COMPS,ioos:station:USF.COMPS:FHP:1,2019-10-05T19:54:00,28.1530,-82.8010,31.69,11111222 
COMPS,ioos:station:USF.COMPS:FHP:1,2019-10-05T20:54:00,28.1530,-82.8010,31.79,11111222 
COMPS,ioos:station:USF.COMPS:FHP:1,2019-10-05T21:54:00,28.1530,-82.8010,31.68,11111222 
COMPS,ioos:station:USF.COMPS:FHP:1,2019-10-05T22:54:00,28.1530,-82.8010,27.31,11111222 
COMPS,ioos:station:USF.COMPS:FHP:1,2019-10-05T23:54:00,28.1530,-82.8010,27.36,11111222 
COMPS,ioos:station:USF.COMPS:FHP:1,2019-10-06T00:54:00,28.1530,-82.8010,27.02,11111222 
COMPS,ioos:station:USF.COMPS:FHP:1,2019-10-06T01:54:00,28.1530,-82.8010,26.81,11111222 
COMPS,ioos:station:USF.COMPS:FHP:1,2019-10-06T02:54:00,28.1530,-82.8010,26.52,11111222 
COMPS,ioos:station:USF.COMPS:FHP:1,2019-10-06T03:54:00,28.1530,-82.8010,25.8,11111222 
COMPS,ioos:station:USF.COMPS:FHP:1,2019-10-06T04:54:00,28.1530,-82.8010,25.12,11111222 
COMPS,ioos:station:USF.COMPS:FHP:1,2019-10-06T05:54:00,28.1530,-82.8010,24.57,11111222 
COMPS,ioos:station:USF.COMPS:FHP:1,2019-10-06T06:54:00,28.1530,-82.8010,24.22,11111222 
COMPS,ioos:station:USF.COMPS:FHP:1,2019-10-06T07:54:00,28.1530,-82.8010,23.9,11111222 
COMPS,ioos:station:USF.COMPS:FHP:1,2019-10-06T08:54:00,28.1530,-82.8010,23.6,11111222 
COMPS,ioos:station:USF.COMPS:FHP:1,2019-10-06T09:54:00,28.1530,-82.8010,23.47,11111222 
COMPS,ioos:station:USF.COMPS:FHP:1,2019-10-06T10:54:00,28.1530,-82.8010,23.61,11111222 
COMPS,ioos:station:USF.COMPS:FHP:1,2019-10-06T11:54:00,28.1530,-82.8010,23.57,11111222 
COMPS,ioos:station:USF.COMPS:FHP:1,2019-10-06T12:54:00,28.1530,-82.8010,24.63,11111222 
COMPS,ioos:station:USF.COMPS:FHP:1,2019-10-06T13:54:00,28.1530,-82.8010,26.09,11111222 
COMPS,ioos:station:USF.COMPS:FHP:1,2019-10-06T14:54:00,28.1530,-82.8010,27.54,11111222 
COMPS,ioos:station:USF.COMPS:FHP:1,2019-10-06T15:54:00,28.1530,-82.8010,28.6,11111222 
COMPS,ioos:station:USF.COMPS:FHP:1,2019-10-06T16:54:00,28.1530,-82.8010,29.07,11111222 
COMPS,ioos:station:USF.COMPS:FHP:1,2019-10-06T17:54:00,28.1530,-82.8010,23.99,11111222 
COMPS,ioos:station:USF.COMPS:FHP:1,2019-10-06T18:54:00,28.1530,-82.8010,25.61,11111222 
COMPS,ioos:station:USF.COMPS:FHP:1,2019-10-06T19:54:00,28.1530,-82.8010,28.25,11111222 
COMPS,ioos:station:USF.COMPS:FHP:1,2019-10-06T20:54:00,28.1530,-82.8010,27.96,11111222 
COMPS,ioos:station:USF.COMPS:FHP:1,2019-10-06T21:54:00,28.1530,-82.8010,28.85,11111222 
COMPS,ioos:station:USF.COMPS:FHP:1,2019-10-06T22:54:00,28.1530,-82.8010,28.63,11111222 
COMPS,ioos:station:USF.COMPS:FHP:1,2019-10-06T23:54:00,28.1530,-82.8010,27.58,11111222 
COMPS,ioos:station:USF.COMPS:FHP:1,2019-10-07T00:54:00,28.1530,-82.8010,27.05,11111222 
COMPS,ioos:station:USF.COMPS:FHP:1,2019-10-07T01:54:00,28.1530,-82.8010,26.5,11111222 
COMPS,ioos:station:USF.COMPS:FHP:1,2019-10-07T02:54:00,28.1530,-82.8010,26.06,11111222 
COMPS,ioos:station:USF.COMPS:FHP:1,2019-10-07T03:54:00,28.1530,-82.8010,25.75,11111222 
COMPS,ioos:station:USF.COMPS:FHP:1,2019-10-07T04:54:00,28.1530,-82.8010,25.34,11111222 
COMPS,ioos:station:USF.COMPS:FHP:1,2019-10-07T05:54:00,28.1530,-82.8010,25.05,11111222 
COMPS,ioos:station:USF.COMPS:FHP:1,2019-10-07T06:54:00,28.1530,-82.8010,24.5,11111222 
COMPS,ioos:station:USF.COMPS:FHP:1,2019-10-07T07:54:00,28.1530,-82.8010,24.44,11111222 
COMPS,ioos:station:USF.COMPS:FHP:1,2019-10-07T08:54:00,28.1530,-82.8010,24.58,11111222 
COMPS,ioos:station:USF.COMPS:FHP:1,2019-10-07T09:54:00,28.1530,-82.8010,24.62,11111222 
COMPS,ioos:station:USF.COMPS:FHP:1,2019-10-07T10:54:00,28.1530,-82.8010,24.58,11111222 
COMPS,ioos:station:USF.COMPS:FHP:1,2019-10-07T11:54:00,28.1530,-82.8010,24.83,11111222 
COMPS,ioos:station:USF.COMPS:FHP:1,2019-10-07T12:54:00,28.1530,-82.8010,25.19,11111222 
COMPS,ioos:station:USF.COMPS:FHP:1,2019-10-07T14:54:00,28.1530,-82.8010,25.51,11111222 
COMPS,ioos:station:USF.COMPS:FHP:1,2019-10-07T15:54:00,28.1530,-82.8010,25.27,11111222 
COMPS,ioos:station:USF.COMPS:FHP:1,2019-10-07T16:54:00,28.1530,-82.8010,24.99,11111222 
COMPS,ioos:station:USF.COMPS:FHP:1,2019-10-07T17:54:00,28.1530,-82.8010,25.14,11111222 
COMPS,ioos:station:USF.COMPS:FHP:1,2019-10-07T18:54:00,28.1530,-82.8010,26.08,11111222 
COMPS,ioos:station:USF.COMPS:FHP:1,2019-10-07T19:54:00,28.1530,-82.8010,26.64,11111222 
COMPS,ioos:station:USF.COMPS:FHP:1,2019-10-07T20:54:00,28.1530,-82.8010,26.92,11111222 
COMPS,ioos:station:USF.COMPS:FHP:1,2019-10-07T21:54:00,28.1530,-82.8010,26.82,11111222 
COMPS,ioos:station:USF.COMPS:FHP:1,2019-10-07T22:54:00,28.1530,-82.8010,26.12,11111222 
COMPS,ioos:station:USF.COMPS:FHP:1,2019-10-07T23:54:00,28.1530,-82.8010,25.87,11111222 
COMPS,ioos:station:USF.COMPS:FHP:1,2019-10-08T00:54:00,28.1530,-82.8010,24.82,11111222 
COMPS,ioos:station:USF.COMPS:FHP:1,2019-10-08T01:54:00,28.1530,-82.8010,24.58,11111222 
COMPS,ioos:station:USF.COMPS:FHP:1,2019-10-08T02:54:00,28.1530,-82.8010,24.44,11111222 
COMPS,ioos:station:USF.COMPS:FHP:1,2019-10-08T03:54:00,28.1530,-82.8010,24.36,11111222 
COMPS,ioos:station:USF.COMPS:FHP:1,2019-10-08T04:54:00,28.1530,-82.8010,24.07,11111222 
COMPS,ioos:station:USF.COMPS:FHP:1,2019-10-08T05:54:00,28.1530,-82.8010,24.01,11111222 
COMPS,ioos:station:USF.COMPS:FHP:1,2019-10-08T06:54:00,28.1530,-82.8010,24.14,11111222 
COMPS,ioos:station:USF.COMPS:FHP:1,2019-10-08T07:54:00,28.1530,-82.8010,23.97,11111222 
COMPS,ioos:station:USF.COMPS:FHP:1,2019-10-08T08:54:00,28.1530,-82.8010,23.83,11111222 
COMPS,ioos:station:USF.COMPS:FHP:1,2019-10-08T09:54:00,28.1530,-82.8010,24.07,11111222 
COMPS,ioos:station:USF.COMPS:FHP:1,2019-10-08T10:54:00,28.1530,-82.8010,24.16,11111222 
COMPS,ioos:station:USF.COMPS:FHP:1,2019-10-08T11:54:00,28.1530,-82.8010,24.1,11111222 
COMPS,ioos:station:USF.COMPS:FHP:1,2019-10-08T12:54:00,28.1530,-82.8010,24.49,11111222 
COMPS,ioos:station:USF.COMPS:FHP:1,2019-10-08T13:54:00,28.1530,-82.8010,25.31,11111222 
COMPS,ioos:station:USF.COMPS:FHP:1,2019-10-08T14:54:00,28.1530,-82.8010,26.26,11111222 
COMPS,ioos:station:USF.COMPS:FHP:1,2019-10-08T15:54:00,28.1530,-82.8010,27.24,11111222 
COMPS,ioos:station:USF.COMPS:FHP:1,2019-10-08T16:54:00,28.1530,-82.8010,26.65,11111222 
COMPS,ioos:station:USF.COMPS:FHP:1,2019-10-08T17:54:00,28.1530,-82.8010,27.49,11111222 
COMPS,ioos:station:USF.COMPS:FHP:1,2019-10-08T18:54:00,28.1530,-82.8010,27.87,11111222 
COMPS,ioos:station:USF.COMPS:FHP:1,2019-10-08T19:54:00,28.1530,-82.8010,28.08,11111222 
COMPS,ioos:station:USF.COMPS:FHP:1,2019-10-08T20:54:00,28.1530,-82.8010,28.27,11111222 
COMPS,ioos:station:USF.COMPS:FHP:1,2019-10-08T21:54:00,28.1530,-82.8010,24.26,11111222 
COMPS,ioos:station:USF.COMPS:FHP:1,2019-10-08T22:54:00,28.1530,-82.8010,24.57,11111222 
COMPS,ioos:station:USF.COMPS:FHP:1,2019-10-08T23:54:00,28.1530,-82.8010,24.67,11111222 
COMPS,ioos:station:USF.COMPS:FHP:1,2019-10-09T00:54:00,28.1530,-82.8010,24.76,11111222 
COMPS,ioos:station:USF.COMPS:FHP:1,2019-10-09T01:54:00,28.1530,-82.8010,24.72,11111222 
COMPS,ioos:station:USF.COMPS:FHP:1,2019-10-09T02:54:00,28.1530,-82.8010,24.86,11111222 
COMPS,ioos:station:USF.COMPS:FHP:1,2019-10-09T03:54:00,28.1530,-82.8010,24.72,11111222 
COMPS,ioos:station:USF.COMPS:FHP:1,2019-10-09T04:54:00,28.1530,-82.8010,24.54,11111222 
COMPS,ioos:station:USF.COMPS:FHP:1,2019-10-09T05:54:00,28.1530,-82.8010,24.38,11111222 
COMPS,ioos:station:USF.COMPS:FHP:1,2019-10-09T06:54:00,28.1530,-82.8010,24.09,11111222 
COMPS,ioos:station:USF.COMPS:FHP:1,2019-10-09T07:54:00,28.1530,-82.8010,23.9,11111222 
COMPS,ioos:station:USF.COMPS:FHP:1,2019-10-09T08:54:00,28.1530,-82.8010,24.18,11111222 
COMPS,ioos:station:USF.COMPS:FHP:1,2019-10-09T09:54:00,28.1530,-82.8010,24.01,11111222 
COMPS,ioos:station:USF.COMPS:FHP:1,2019-10-09T10:54:00,28.1530,-82.8010,24.08,11111222 
COMPS,ioos:station:USF.COMPS:FHP:1,2019-10-09T11:54:00,28.1530,-82.8010,24.09,11111222 
COMPS,ioos:station:USF.COMPS:FHP:1,2019-10-09T12:54:00,28.1530,-82.8010,24.17,11111222 
COMPS,ioos:station:USF.COMPS:FHP:1,2019-10-09T13:54:00,28.1530,-82.8010,24.83,11111222 
COMPS,ioos:station:USF.COMPS:FHP:1,2019-10-09T14:54:00,28.1530,-82.8010,25.73,11111222 
COMPS,ioos:station:USF.COMPS:FHP:1,2019-10-09T15:54:00,28.1530,-82.8010,26.92,11111222 
COMPS,ioos:station:USF.COMPS:FHP:1,2019-10-09T16:54:00,28.1530,-82.8010,27.16,11111222 
COMPS,ioos:station:USF.COMPS:FHP:1,2019-10-09T17:54:00,28.1530,-82.8010,27.28,11111222 
COMPS,ioos:station:USF.COMPS:FHP:1,2019-10-09T18:54:00,28.1530,-82.8010,27.02,11111222 
COMPS,ioos:station:USF.COMPS:FHP:1,2019-10-09T19:54:00,28.1530,-82.8010,27.29,11111222 
COMPS,ioos:station:USF.COMPS:FHP:1,2019-10-09T20:54:00,28.1530,-82.8010,26.73,11111222 
COMPS,ioos:station:USF.COMPS:FHP:1,2019-10-09T21:54:00,28.1530,-82.8010,26.24,11111222 
COMPS,ioos:station:USF.COMPS:FHP:1,2019-10-09T22:54:00,28.1530,-82.8010,25.89,11111222 
COMPS,ioos:station:USF.COMPS:FHP:1,2019-10-10T00:54:00,28.1530,-82.8010,25.04,11111222 
COMPS,ioos:station:USF.COMPS:FHP:1,2019-10-10T01:54:00,28.1530,-82.8010,24.61,11111222 
COMPS,ioos:station:USF.COMPS:FHP:1,2019-10-10T02:54:00,28.1530,-82.8010,24.37,11111222 
COMPS,ioos:station:USF.COMPS:FHP:1,2019-10-10T03:54:00,28.1530,-82.8010,23.98,11111222 
COMPS,ioos:station:USF.COMPS:FHP:1,2019-10-10T04:54:00,28.1530,-82.8010,23.7,11111222 
COMPS,ioos:station:USF.COMPS:FHP:1,2019-10-10T05:54:00,28.1530,-82.8010,23.39,11111222 
COMPS,ioos:station:USF.COMPS:FHP:1,2019-10-10T06:54:00,28.1530,-82.8010,23.15,11111222 
COMPS,ioos:station:USF.COMPS:FHP:1,2019-10-10T07:54:00,28.1530,-82.8010,22.83,11111222 
COMPS,ioos:station:USF.COMPS:FHP:1,2019-10-10T08:54:00,28.1530,-82.8010,22.57,11111222 
COMPS,ioos:station:USF.COMPS:FHP:1,2019-10-10T09:54:00,28.1530,-82.8010,22.63,11111222 
COMPS,ioos:station:USF.COMPS:FHP:1,2019-10-10T10:54:00,28.1530,-82.8010,22.44,11111222 
COMPS,ioos:station:USF.COMPS:FHP:1,2019-10-10T11:54:00,28.1530,-82.8010,22.44,11111222 
COMPS,ioos:station:USF.COMPS:FHP:1,2019-10-10T12:54:00,28.1530,-82.8010,23.43,11111222 
COMPS,ioos:station:USF.COMPS:FHP:1,2019-10-10T13:54:00,28.1530,-82.8010,24.97,11111222 
COMPS,ioos:station:USF.COMPS:FHP:1,2019-10-10T14:54:00,28.1530,-82.8010,26.74,11111222 
COMPS,ioos:station:USF.COMPS:FHP:1,2019-10-10T15:54:00,28.1530,-82.8010,27.59,11111222 
COMPS,ioos:station:USF.COMPS:FHP:1,2019-10-10T16:54:00,28.1530,-82.8010,28.81,11111222 
COMPS,ioos:station:USF.COMPS:FHP:1,2019-10-10T17:54:00,28.1530,-82.8010,29.12,11111222 
COMPS,ioos:station:USF.COMPS:FHP:1,2019-10-10T18:54:00,28.1530,-82.8010,28.46,11111222 
COMPS,ioos:station:USF.COMPS:FHP:1,2019-10-10T19:54:00,28.1530,-82.8010,28.1,11111222 
COMPS,ioos:station:USF.COMPS:FHP:1,2019-10-10T20:54:00,28.1530,-82.8010,28.21,11111222 
COMPS,ioos:station:USF.COMPS:FHP:1,2019-10-10T21:54:00,28.1530,-82.8010,29.38,11111222 
COMPS,ioos:station:USF.COMPS:FHP:1,2019-10-10T22:54:00,28.1530,-82.8010,28.21,11111222 
COMPS,ioos:station:USF.COMPS:FHP:1,2019-10-10T23:54:00,28.1530,-82.8010,27.29,11111222 
COMPS,ioos:station:USF.COMPS:FHP:1,2019-10-11T00:54:00,28.1530,-82.8010,26.57,11111222 
COMPS,ioos:station:USF.COMPS:FHP:1,2019-10-11T01:54:00,28.1530,-82.8010,25.88,11111222 
COMPS,ioos:station:USF.COMPS:FHP:1,2019-10-11T02:54:00,28.1530,-82.8010,25.03,11111222 
COMPS,ioos:station:USF.COMPS:FHP:1,2019-10-11T03:54:00,28.1530,-82.8010,24.31,11111222 
COMPS,ioos:station:USF.COMPS:FHP:1,2019-10-11T04:54:00,28.1530,-82.8010,23.7,11111222 
COMPS,ioos:station:USF.COMPS:FHP:1,2019-10-11T05:54:00,28.1530,-82.8010,23.41,11111222 
COMPS,ioos:station:USF.COMPS:FHP:1,2019-10-11T06:54:00,28.1530,-82.8010,22.97,11111222 
COMPS,ioos:station:USF.COMPS:FHP:1,2019-10-11T07:54:00,28.1530,-82.8010,22.73,11111222 
COMPS,ioos:station:USF.COMPS:FHP:1,2019-10-11T08:54:00,28.1530,-82.8010,22.41,11111222 
COMPS,ioos:station:USF.COMPS:FHP:1,2019-10-11T09:54:00,28.1530,-82.8010,22.07,11111222 
COMPS,ioos:station:USF.COMPS:FHP:1,2019-10-11T10:54:00,28.1530,-82.8010,21.85,11111222 
COMPS,ioos:station:USF.COMPS:FHP:1,2019-10-11T11:54:00,28.1530,-82.8010,21.71,11111222 
COMPS,ioos:station:USF.COMPS:FHP:1,2019-10-11T12:54:00,28.1530,-82.8010,22.86,11111222 
COMPS,ioos:station:USF.COMPS:FHP:1,2019-10-11T13:54:00,28.1530,-82.8010,24.81,11111222 
COMPS,ioos:station:USF.COMPS:FHP:1,2019-10-11T14:54:00,28.1530,-82.8010,26.18,11111222 
COMPS,ioos:station:USF.COMPS:FHP:1,2019-10-11T15:54:00,28.1530,-82.8010,27.08,11111222 
COMPS,ioos:station:USF.COMPS:FHP:1,2019-10-11T16:54:00,28.1530,-82.8010,27.94,11111222 
COMPS,ioos:station:USF.COMPS:FHP:1,2019-10-11T17:54:00,28.1530,-82.8010,29.21,11111222 
COMPS,ioos:station:USF.COMPS:FHP:1,2019-10-11T18:54:00,28.1530,-82.8010,29.79,11111222 
COMPS,ioos:station:USF.COMPS:FHP:1,2019-10-11T19:54:00,28.1530,-82.8010,28.05,11111222 
COMPS,ioos:station:USF.COMPS:FHP:1,2019-10-11T20:54:00,28.1530,-82.8010,27.79,11111222 
COMPS,ioos:station:USF.COMPS:FHP:1,2019-10-11T21:54:00,28.1530,-82.8010,27.49,11111222 
COMPS,ioos:station:USF.COMPS:FHP:1,2019-10-11T22:54:00,28.1530,-82.8010,27.2,11111222 
COMPS,ioos:station:USF.COMPS:FHP:1,2019-10-11T23:54:00,28.1530,-82.8010,26.91,11111222 
COMPS,ioos:station:USF.COMPS:FHP:1,2019-10-12T00:54:00,28.1530,-82.8010,26.39,11111222 
COMPS,ioos:station:USF.COMPS:FHP:1,2019-10-12T01:54:00,28.1530,-82.8010,25.76,11111222 
COMPS,ioos:station:USF.COMPS:FHP:1,2019-10-12T02:54:00,28.1530,-82.8010,24.56,11111222 
COMPS,ioos:station:USF.COMPS:FHP:1,2019-10-12T03:54:00,28.1530,-82.8010,23.8,11111222 
COMPS,ioos:station:USF.COMPS:FHP:1,2019-10-12T04:54:00,28.1530,-82.8010,23.4,11111222 
COMPS,ioos:station:USF.COMPS:FHP:1,2019-10-12T05:54:00,28.1530,-82.8010,22.95,11111222 
COMPS,ioos:station:USF.COMPS:FHP:1,2019-10-12T06:54:00,28.1530,-82.8010,22.49,11111222 
COMPS,ioos:station:USF.COMPS:FHP:1,2019-10-12T07:54:00,28.1530,-82.8010,22.28,11111222 
COMPS,ioos:station:USF.COMPS:FHP:1,2019-10-12T08:54:00,28.1530,-82.8010,21.71,11111222 
COMPS,ioos:station:USF.COMPS:FHP:1,2019-10-12T09:54:00,28.1530,-82.8010,21.44,11111222 